AEROCUBE 6A

Last updated on Tue Jul 01 2025 00:03:44 GMT+0000 (Coordinated Universal Time)

1 40045U 14033AM 25180.98056812 .00003346 00000+0 32539-3 0 9999 2 40045 97.6945 348.7896 0044248 111.6708 248.9232 14.92494390593985
UTC large
Height (km)
Speed (km/s)
/
Latitude / Longitude
Inclination (degrees)
Orbital Period (minutes)
Azimuth
Elevation
Range (km)
Doppler Factor

Next 0 passes for location: London (51.5072 / 0.1276)

Sorry there are no passes over London.